COSMOS 2230

Satellite information

Favourite Embed

Satellite Type and Status

PAYLOADIN ORBIT

Key statistics

Satellite COSMOS 2230 at a glance.

Uptime

11804

Days in orbit

Revolutions

≈ 13.7

Per day

Orbit

LEO

Low Earth Orbit

Inclination

82.9

Latest

Satellite identification and parameters

Extended collection of information and parameters for COSMOS 2230.

Object identification

Identified? True

Debris? False

Object name: COSMOS 2230

International designator: 1993-001A

Object number (NORAD): 22307

Object ID (CCSDS): 22307

Country: COMMONWEALTH OF INDEPENDENT STATES (CIS)

Current information (Y/N): Y

RCS size: LARGE

Orbital parameters

Period: 104.816 minutes

Inclination: 82.9429 deg

SMA: 7363.965 km

Apoapsis: 1003.423 km

Periapsis: 968.238 km

RAAN: 228.258 deg

Eccentricy: 0.002389

Argument of periapsis: 210.6367 deg

Mean anomaly: 272.7247 deg

Mean motion: 13.73836824 rev/day

Mean motion (dot): 0.00000064 rev/day2

B* drag term: 0.00005213 1/REarth

Two-line elements (TLE)

Creation date: May 8, 2025, 3:01 a.m.

Reference frame: TEME

Reference center: EARTH

Epoch: May 7, 2025, 8 p.m. UTC

TLE line 0: 0 COSMOS 2230

TLE line 1: 1 22307U 93001A 25127.83347858 .00000064 00000-0 52130-4 0 9995

TLE line 2: 2 22307 82.9429 228.2580 0023890 210.6367 272.7247 13.73836824611424

Live tracking on map

Real-time ground track for satellite COSMOS 2230.

In-orbit conjunctions

A list of the most updated potential collisions computed for object COSMOS 2230.

Target Orbit TCA Probability of collision Miss distance Type
FENGYUN 1C DEB SSO 2024-11-03 22:24:41 0.0001659937 437.0 (m) DEBRIS
THOR ABLESTAR DEB LEO 2024-08-21 06:07:58 0.0001270134 350.0 (m) DEBRIS
SL-16 DEB LEO 2024-06-18 23:53:55 0.0001244579 415.0 (m) DEBRIS

Associated space launch

Civilian navigation satellite equivalent to the purely military Parus

COSMOS 2230 was lifted into orbit during the mission ‘Kosmos-3M | Tsikada 19’, on board a Kosmos-3M space rocket.

The launch took place on Jan. 12, 1993, 11:10 a.m. from 133/3 (133L).

For more information about the launch, click the button.

Launch to space Kosmos-3M | Tsikada 19
Kosmos-3M | Tsikada 19

Agency: N/A

Status: Launch Successful

Launch date: Jan. 12, 1993, 11:10 a.m. UTC

Rocket: Kosmos-3M

Launch pad: 133/3 (133L)

Location: Plesetsk Cosmodrome, Russian Federation

...

Latest news about this satellite

There are no fresh news available about this satellite. Check back as we update our databases every day.


Newsletter sign-up

Weekly statistics, charts and insights to help you stay on top of the space industry.